Year,Month,Day,Hour,Minute,Value (Times are PST for temperature in C)
2017,05,29,00,00,14.60
2017,05,29,00,01,14.60
2017,05,29,00,02,14.60
2017,05,29,00,03,14.60
2017,05,29,00,04,14.60
2017,05,29,00,05,14.60
2017,05,29,00,06,14.60
2017,05,29,00,07,14.50
2017,05,29,00,08,14.50
2017,05,29,00,09,14.50
2017,05,29,00,10,14.50
2017,05,29,00,11,14.50
2017,05,29,00,12,14.50
2017,05,29,00,13,14.50
2017,05,29,00,14,14.50
2017,05,29,00,15,14.40
2017,05,29,00,16,14.40
2017,05,29,00,17,14.40
2017,05,29,00,18,14.40
2017,05,29,00,19,14.40
2017,05,29,00,20,14.40
2017,05,29,00,21,14.40
2017,05,29,00,22,14.40
2017,05,29,00,23,14.40
2017,05,29,00,24,14.40
2017,05,29,00,25,14.40
2017,05,29,00,26,14.30
2017,05,29,00,27,14.30
2017,05,29,00,28,14.30
2017,05,29,00,29,14.30
2017,05,29,00,30,14.30
2017,05,29,00,31,14.30
2017,05,29,00,32,14.30
2017,05,29,00,33,14.30
2017,05,29,00,34,14.30
2017,05,29,00,35,14.30
2017,05,29,00,36,14.30
2017,05,29,00,37,14.30
2017,05,29,00,38,14.30
2017,05,29,00,39,14.30
2017,05,29,00,40,14.20
2017,05,29,00,41,14.20
2017,05,29,00,42,14.20
2017,05,29,00,43,14.10
2017,05,29,00,44,14.10
2017,05,29,00,45,14.10
2017,05,29,00,46,14.00
2017,05,29,00,47,13.90
2017,05,29,00,48,13.90
2017,05,29,00,49,13.80
2017,05,29,00,50,13.80
2017,05,29,00,51,13.80
2017,05,29,00,52,13.70
2017,05,29,00,53,13.70
2017,05,29,00,54,13.60
2017,05,29,00,55,13.60
2017,05,29,00,56,13.50
2017,05,29,00,57,13.50
2017,05,29,00,58,13.50
2017,05,29,00,59,13.50
2017,05,29,01,00,13.50
2017,05,29,01,01,13.50
2017,05,29,01,02,13.50
2017,05,29,01,03,13.50
2017,05,29,01,04,13.60
2017,05,29,01,05,13.60
2017,05,29,01,06,13.60
2017,05,29,01,07,13.70
2017,05,29,01,08,13.70
2017,05,29,01,09,13.70
2017,05,29,01,10,13.70
2017,05,29,01,11,13.70
2017,05,29,01,12,13.70
2017,05,29,01,13,13.60
2017,05,29,01,14,13.60
2017,05,29,01,15,13.60
2017,05,29,01,16,13.60
2017,05,29,01,17,13.50
2017,05,29,01,18,13.50
2017,05,29,01,19,13.50
2017,05,29,01,20,13.40
2017,05,29,01,21,13.40
2017,05,29,01,22,13.40
2017,05,29,01,23,13.30
2017,05,29,01,24,13.30
2017,05,29,01,25,13.30
2017,05,29,01,26,13.30
2017,05,29,01,27,13.30
2017,05,29,01,28,13.20
2017,05,29,01,29,13.20
2017,05,29,01,30,13.20
2017,05,29,01,31,13.20
2017,05,29,01,32,13.20
2017,05,29,01,33,13.10
2017,05,29,01,34,13.10
2017,05,29,01,35,13.10
2017,05,29,01,36,13.10
2017,05,29,01,37,13.10
2017,05,29,01,38,13.10
2017,05,29,01,39,13.00
2017,05,29,01,40,13.00
2017,05,29,01,41,13.00
2017,05,29,01,42,13.00
2017,05,29,01,43,12.90
2017,05,29,01,44,12.90
2017,05,29,01,45,12.90
2017,05,29,01,46,12.90
2017,05,29,01,47,12.90
2017,05,29,01,48,12.90
2017,05,29,01,49,12.90
2017,05,29,01,50,12.90
2017,05,29,01,51,13.00
2017,05,29,01,52,13.00
2017,05,29,01,53,13.00
2017,05,29,01,54,13.10
2017,05,29,01,55,13.10
2017,05,29,01,56,13.10
2017,05,29,01,57,13.10
2017,05,29,01,58,13.10
2017,05,29,01,59,13.10
2017,05,29,02,00,13.10
2017,05,29,02,01,13.10
2017,05,29,02,02,13.10
2017,05,29,02,03,13.10
2017,05,29,02,04,13.10
2017,05,29,02,05,13.10
2017,05,29,02,06,13.10
2017,05,29,02,07,13.10
2017,05,29,02,08,13.10
2017,05,29,02,09,13.10
2017,05,29,02,10,13.10
2017,05,29,02,11,13.20
2017,05,29,02,12,13.20
2017,05,29,02,13,13.20
2017,05,29,02,14,13.20
2017,05,29,02,15,13.20
2017,05,29,02,16,13.10
2017,05,29,02,17,13.10
2017,05,29,02,18,13.10
2017,05,29,02,19,13.10
2017,05,29,02,20,13.10
2017,05,29,02,21,13.10
2017,05,29,02,22,13.10
2017,05,29,02,23,13.10
2017,05,29,02,24,13.10
2017,05,29,02,25,13.10
2017,05,29,02,26,13.10
2017,05,29,02,27,13.10
2017,05,29,02,28,13.10
2017,05,29,02,29,13.00
2017,05,29,02,30,13.00
2017,05,29,02,31,13.00
2017,05,29,02,32,13.00
2017,05,29,02,33,13.00
2017,05,29,02,34,13.00
2017,05,29,02,35,13.00
2017,05,29,02,36,13.00
2017,05,29,02,37,13.00
2017,05,29,02,38,13.00
2017,05,29,02,39,13.00
2017,05,29,02,40,13.00
2017,05,29,02,41,13.00
2017,05,29,02,42,12.90
2017,05,29,02,43,12.90
2017,05,29,02,44,12.90
2017,05,29,02,45,12.90
2017,05,29,02,46,12.90
2017,05,29,02,47,12.90
2017,05,29,02,48,12.80
2017,05,29,02,49,12.80
2017,05,29,02,50,12.80
2017,05,29,02,51,12.80
2017,05,29,02,52,12.70
2017,05,29,02,53,12.70
2017,05,29,02,54,12.70
2017,05,29,02,55,12.70
2017,05,29,02,56,12.70
2017,05,29,02,57,12.70
2017,05,29,02,58,12.60
2017,05,29,02,59,12.60
2017,05,29,03,00,12.60
2017,05,29,03,01,12.60
2017,05,29,03,02,12.60
2017,05,29,03,03,12.60
2017,05,29,03,04,12.60
2017,05,29,03,05,12.60
2017,05,29,03,06,12.60
2017,05,29,03,07,12.60
2017,05,29,03,08,12.60
2017,05,29,03,09,12.60
2017,05,29,03,10,12.50
2017,05,29,03,11,12.50
2017,05,29,03,12,12.50
2017,05,29,03,13,12.50
2017,05,29,03,14,12.50
2017,05,29,03,15,12.50
2017,05,29,03,16,12.40
2017,05,29,03,17,12.40
2017,05,29,03,18,12.40
2017,05,29,03,19,12.40
2017,05,29,03,20,12.40
2017,05,29,03,21,12.40
2017,05,29,03,22,12.40
2017,05,29,03,23,12.40
2017,05,29,03,24,12.30
2017,05,29,03,25,12.30
2017,05,29,03,26,12.30
2017,05,29,03,27,12.30
2017,05,29,03,28,12.30
2017,05,29,03,29,12.30
2017,05,29,03,30,12.30
2017,05,29,03,31,12.30
2017,05,29,03,32,12.30
2017,05,29,03,33,12.30
2017,05,29,03,34,12.30
2017,05,29,03,35,12.30
2017,05,29,03,36,12.20
2017,05,29,03,37,12.20
2017,05,29,03,38,12.20
2017,05,29,03,39,12.20
2017,05,29,03,40,12.20
2017,05,29,03,41,12.20
2017,05,29,03,42,12.20
2017,05,29,03,43,12.10
2017,05,29,03,44,12.10
2017,05,29,03,45,12.10
2017,05,29,03,46,12.10
2017,05,29,03,47,12.10
2017,05,29,03,48,12.10
2017,05,29,03,49,12.10
2017,05,29,03,50,12.00
2017,05,29,03,51,12.00
2017,05,29,03,52,12.00
2017,05,29,03,53,12.00
2017,05,29,03,54,12.00
2017,05,29,03,55,12.00
2017,05,29,03,56,12.00
2017,05,29,03,57,12.00
2017,05,29,03,58,12.00
2017,05,29,03,59,12.10
2017,05,29,04,00,12.10
2017,05,29,04,01,12.10
2017,05,29,04,02,12.10
2017,05,29,04,03,12.10
2017,05,29,04,04,12.10
2017,05,29,04,05,12.10
2017,05,29,04,06,12.10
2017,05,29,04,07,12.10
2017,05,29,04,08,12.10
2017,05,29,04,09,12.10
2017,05,29,04,10,12.10
2017,05,29,04,11,12.10
2017,05,29,04,12,12.10
2017,05,29,04,13,12.10
2017,05,29,04,14,12.10
2017,05,29,04,15,12.10
2017,05,29,04,16,12.10
2017,05,29,04,17,12.10
2017,05,29,04,18,12.10
2017,05,29,04,19,12.10
2017,05,29,04,20,12.10
2017,05,29,04,21,12.10
2017,05,29,04,22,12.10
2017,05,29,04,23,12.10
2017,05,29,04,24,12.10
2017,05,29,04,25,12.10
2017,05,29,04,26,12.10
2017,05,29,04,27,12.10
2017,05,29,04,28,12.10
2017,05,29,04,29,12.10
2017,05,29,04,30,12.10
2017,05,29,04,31,12.10
2017,05,29,04,32,12.10
2017,05,29,04,33,12.10
2017,05,29,04,34,12.10
2017,05,29,04,35,12.10
2017,05,29,04,36,12.00
2017,05,29,04,37,12.00
2017,05,29,04,38,12.00
2017,05,29,04,39,12.00
2017,05,29,04,40,12.00
2017,05,29,04,41,12.00
2017,05,29,04,42,12.00
2017,05,29,04,43,12.00
2017,05,29,04,44,12.00
2017,05,29,04,45,12.00
2017,05,29,04,46,12.00
2017,05,29,04,47,12.00
2017,05,29,04,48,12.00
2017,05,29,04,49,12.00
2017,05,29,04,50,12.00
2017,05,29,04,51,12.00
2017,05,29,04,52,12.00
2017,05,29,04,53,12.00
2017,05,29,04,54,12.10
2017,05,29,04,55,12.00
2017,05,29,04,56,12.00
2017,05,29,04,57,12.10
2017,05,29,04,58,12.00
2017,05,29,04,59,12.00
2017,05,29,05,00,12.00
2017,05,29,05,01,12.00
2017,05,29,05,02,12.00
2017,05,29,05,03,12.00
2017,05,29,05,04,12.00
2017,05,29,05,05,12.00
2017,05,29,05,06,12.00
2017,05,29,05,07,12.00
2017,05,29,05,08,12.00
2017,05,29,05,09,12.00
2017,05,29,05,10,12.00
2017,05,29,05,11,12.00
2017,05,29,05,12,12.00
2017,05,29,05,13,12.00
2017,05,29,05,14,12.00
2017,05,29,05,15,12.00
2017,05,29,05,16,12.00
2017,05,29,05,17,12.00
2017,05,29,05,18,12.00
2017,05,29,05,19,11.90
2017,05,29,05,20,11.90
2017,05,29,05,21,11.90
2017,05,29,05,22,11.90
2017,05,29,05,23,11.90
2017,05,29,05,24,11.90
2017,05,29,05,25,11.90
2017,05,29,05,26,11.90
2017,05,29,05,27,11.90
2017,05,29,05,28,11.90
2017,05,29,05,29,11.80
2017,05,29,05,30,11.80
2017,05,29,05,31,11.80
2017,05,29,05,32,11.80
2017,05,29,05,33,11.80
2017,05,29,05,34,11.80
2017,05,29,05,35,11.80
2017,05,29,05,36,11.80
2017,05,29,05,37,11.80
2017,05,29,05,38,11.80
2017,05,29,05,39,11.80
2017,05,29,05,40,11.80
2017,05,29,05,41,11.80
2017,05,29,05,42,11.80
2017,05,29,05,43,11.80
2017,05,29,05,44,11.80
2017,05,29,05,45,11.80
2017,05,29,05,46,11.80
2017,05,29,05,47,11.80
2017,05,29,05,48,11.80
2017,05,29,05,49,11.80
2017,05,29,05,50,11.80
2017,05,29,05,51,11.80
2017,05,29,05,52,11.80
2017,05,29,05,53,11.80
2017,05,29,05,54,11.80
2017,05,29,05,55,11.80
2017,05,29,05,56,11.80
2017,05,29,05,57,11.80
2017,05,29,05,58,11.80
2017,05,29,05,59,11.80
2017,05,29,06,00,11.80
2017,05,29,06,01,11.80
2017,05,29,06,02,11.80
2017,05,29,06,03,11.80
2017,05,29,06,04,11.80
2017,05,29,06,05,11.80
2017,05,29,06,06,11.80
2017,05,29,06,07,11.80
2017,05,29,06,08,11.80
2017,05,29,06,09,11.80
2017,05,29,06,10,11.80
2017,05,29,06,11,11.80
2017,05,29,06,12,11.80
2017,05,29,06,13,11.80
2017,05,29,06,14,11.80
2017,05,29,06,15,11.80
2017,05,29,06,16,11.80
2017,05,29,06,17,11.80
2017,05,29,06,18,11.80
2017,05,29,06,19,11.80
2017,05,29,06,20,11.80
2017,05,29,06,21,11.80
2017,05,29,06,22,11.80
2017,05,29,06,23,11.80
2017,05,29,06,24,11.80
2017,05,29,06,25,11.80
2017,05,29,06,26,11.90
2017,05,29,06,27,11.90
2017,05,29,06,28,11.90
2017,05,29,06,29,11.90
2017,05,29,06,30,11.90
2017,05,29,06,31,11.90
2017,05,29,06,32,12.00
2017,05,29,06,33,12.00
2017,05,29,06,34,12.10
2017,05,29,06,35,12.10
2017,05,29,06,36,12.10
2017,05,29,06,37,12.20
2017,05,29,06,38,12.20
2017,05,29,06,39,12.20
2017,05,29,06,40,12.30
2017,05,29,06,41,12.30
2017,05,29,06,42,12.30
2017,05,29,06,43,12.40
2017,05,29,06,44,12.40
2017,05,29,06,45,12.40
2017,05,29,06,46,12.50
2017,05,29,06,47,12.50
2017,05,29,06,48,12.60
2017,05,29,06,49,12.60
2017,05,29,06,50,12.60
2017,05,29,06,51,12.70
2017,05,29,06,52,12.70
2017,05,29,06,53,12.80
2017,05,29,06,54,12.80
2017,05,29,06,55,12.90
2017,05,29,06,56,12.90
2017,05,29,06,57,13.00
2017,05,29,06,58,13.00
2017,05,29,06,59,13.10
2017,05,29,07,00,13.10
2017,05,29,07,01,13.20
2017,05,29,07,02,13.30
2017,05,29,07,03,13.50
2017,05,29,07,04,13.60
2017,05,29,07,05,13.70
2017,05,29,07,06,13.80
2017,05,29,07,07,13.90
2017,05,29,07,08,13.90
2017,05,29,07,09,14.00
2017,05,29,07,10,14.10
2017,05,29,07,11,14.10
2017,05,29,07,12,14.10
2017,05,29,07,13,14.10
2017,05,29,07,14,14.10
2017,05,29,07,15,14.10
2017,05,29,07,16,14.10
2017,05,29,07,17,14.10
2017,05,29,07,18,14.20
2017,05,29,07,19,14.20
2017,05,29,07,20,14.30
2017,05,29,07,21,14.30
2017,05,29,07,22,14.30
2017,05,29,07,23,14.30
2017,05,29,07,24,14.30
2017,05,29,07,25,14.30
2017,05,29,07,26,14.30
2017,05,29,07,27,14.20
2017,05,29,07,28,14.20
2017,05,29,07,29,14.10
2017,05,29,07,30,14.10
2017,05,29,07,31,14.00
2017,05,29,07,32,14.00
2017,05,29,07,33,13.90
2017,05,29,07,34,13.90
2017,05,29,07,35,13.90
2017,05,29,07,36,13.90
2017,05,29,07,37,13.80
2017,05,29,07,38,13.80
2017,05,29,07,39,13.80
2017,05,29,07,40,13.80
2017,05,29,07,41,13.80
2017,05,29,07,42,13.70
2017,05,29,07,43,13.70
2017,05,29,07,44,13.70
2017,05,29,07,45,13.70
2017,05,29,07,46,13.70
2017,05,29,07,47,13.70
2017,05,29,07,48,13.60
2017,05,29,07,49,13.60
2017,05,29,07,50,13.60
2017,05,29,07,51,13.60
2017,05,29,07,52,13.60
2017,05,29,07,53,13.60
2017,05,29,07,54,13.60
2017,05,29,07,55,13.60
2017,05,29,07,56,13.60
2017,05,29,07,57,13.60
2017,05,29,07,58,13.60
2017,05,29,07,59,13.60
2017,05,29,08,00,13.60
2017,05,29,08,01,13.60
2017,05,29,08,02,13.70
2017,05,29,08,03,13.70
2017,05,29,08,04,13.70
2017,05,29,08,05,13.80
2017,05,29,08,06,13.80
2017,05,29,08,07,13.80
2017,05,29,08,08,13.80
2017,05,29,08,09,13.90
2017,05,29,08,10,13.90
2017,05,29,08,11,14.00
2017,05,29,08,12,14.10
2017,05,29,08,13,14.10
2017,05,29,08,14,14.20
2017,05,29,08,15,14.20
2017,05,29,08,16,14.30
2017,05,29,08,17,14.40
2017,05,29,08,18,14.50
2017,05,29,08,19,14.60
2017,05,29,08,20,14.60
2017,05,29,08,21,14.60
2017,05,29,08,22,14.70
2017,05,29,08,23,14.70
2017,05,29,08,24,14.70
2017,05,29,08,25,14.70
2017,05,29,08,26,14.70
2017,05,29,08,27,14.70
2017,05,29,08,28,14.80
2017,05,29,08,29,14.80
2017,05,29,08,30,14.80
2017,05,29,08,31,14.90
2017,05,29,08,32,14.90
2017,05,29,08,33,15.00
2017,05,29,08,34,15.00
2017,05,29,08,35,15.00
2017,05,29,08,36,15.00
2017,05,29,08,37,15.00
2017,05,29,08,38,14.90
2017,05,29,08,39,14.90
2017,05,29,08,40,14.90
2017,05,29,08,41,15.00
2017,05,29,08,42,15.00
2017,05,29,08,43,15.00
2017,05,29,08,44,15.00
2017,05,29,08,45,15.10
2017,05,29,08,46,15.10
2017,05,29,08,47,15.10
2017,05,29,08,48,15.10
2017,05,29,08,49,15.10
2017,05,29,08,50,15.00
2017,05,29,08,51,15.00
2017,05,29,08,52,14.90
2017,05,29,08,53,14.80
2017,05,29,08,54,14.70
2017,05,29,08,55,14.60
2017,05,29,08,56,14.60
2017,05,29,08,57,14.50
2017,05,29,08,58,14.50
2017,05,29,08,59,14.40
2017,05,29,09,00,14.40
2017,05,29,09,01,14.30
2017,05,29,09,02,14.30
2017,05,29,09,03,14.30
2017,05,29,09,04,14.30
2017,05,29,09,05,14.30
2017,05,29,09,06,14.30
2017,05,29,09,07,14.40
2017,05,29,09,08,14.40
2017,05,29,09,09,14.40
2017,05,29,09,10,14.40
2017,05,29,09,11,14.40
2017,05,29,09,12,14.40
2017,05,29,09,13,14.40
2017,05,29,09,14,14.40
2017,05,29,09,15,14.40
2017,05,29,09,16,14.40
2017,05,29,09,17,14.40
2017,05,29,09,18,14.40
2017,05,29,09,19,14.40
2017,05,29,09,20,14.40
2017,05,29,09,21,14.40
2017,05,29,09,22,14.40
2017,05,29,09,23,14.50
2017,05,29,09,24,14.50
2017,05,29,09,25,14.50
2017,05,29,09,26,14.60
2017,05,29,09,27,14.70
2017,05,29,09,28,14.80
2017,05,29,09,29,14.90
2017,05,29,09,30,14.90
2017,05,29,09,31,14.90
2017,05,29,09,32,14.90
2017,05,29,09,33,15.00
2017,05,29,09,34,15.00
2017,05,29,09,35,15.10
2017,05,29,09,36,15.10
2017,05,29,09,37,15.20
2017,05,29,09,38,15.20
2017,05,29,09,39,15.20
2017,05,29,09,40,15.30
2017,05,29,09,41,15.40
2017,05,29,09,42,15.40
2017,05,29,09,43,15.50
2017,05,29,09,44,15.60
2017,05,29,09,45,15.70
2017,05,29,09,46,15.70
2017,05,29,09,47,15.80
2017,05,29,09,48,15.80
2017,05,29,09,49,15.80
2017,05,29,09,50,15.80
2017,05,29,09,51,15.90
2017,05,29,09,52,15.90
2017,05,29,09,53,16.00
2017,05,29,09,54,16.00
2017,05,29,09,55,16.00
2017,05,29,09,56,16.00
2017,05,29,09,57,16.00
2017,05,29,09,58,16.00
2017,05,29,09,59,15.90
2017,05,29,10,00,15.80
2017,05,29,10,01,15.70
2017,05,29,10,02,15.70
2017,05,29,10,03,15.70
2017,05,29,10,04,15.70
2017,05,29,10,05,15.70
2017,05,29,10,06,15.70
2017,05,29,10,07,15.80
2017,05,29,10,08,15.80
2017,05,29,10,09,15.80
2017,05,29,10,10,15.90
2017,05,29,10,11,15.90
2017,05,29,10,12,15.90
2017,05,29,10,13,15.90
2017,05,29,10,14,15.90
2017,05,29,10,15,15.90
2017,05,29,10,16,16.00
2017,05,29,10,17,16.10
2017,05,29,10,18,16.10
2017,05,29,10,19,16.10
2017,05,29,10,20,16.10
2017,05,29,10,21,16.20
2017,05,29,10,22,16.20
2017,05,29,10,23,16.20
2017,05,29,10,24,16.20
2017,05,29,10,25,16.20
2017,05,29,10,26,16.20
2017,05,29,10,27,16.30
2017,05,29,10,28,16.30
2017,05,29,10,29,16.40
2017,05,29,10,30,16.50
2017,05,29,10,31,16.60
2017,05,29,10,32,16.60
2017,05,29,10,33,16.60
2017,05,29,10,34,16.70
2017,05,29,10,35,16.80
2017,05,29,10,36,16.80
2017,05,29,10,37,16.90
2017,05,29,10,38,16.90
2017,05,29,10,39,17.00
2017,05,29,10,40,17.10
2017,05,29,10,41,17.20
2017,05,29,10,42,17.30
2017,05,29,10,43,17.40
2017,05,29,10,44,17.40
2017,05,29,10,45,17.50
2017,05,29,10,46,17.50
2017,05,29,10,47,17.50
2017,05,29,10,48,17.50
2017,05,29,10,49,17.60
2017,05,29,10,50,17.60
2017,05,29,10,51,17.60
2017,05,29,10,52,17.60
2017,05,29,10,53,17.60
2017,05,29,10,54,17.50
2017,05,29,10,55,17.40
2017,05,29,10,56,17.40
2017,05,29,10,57,17.40
2017,05,29,10,58,17.30
2017,05,29,10,59,17.30
2017,05,29,11,00,17.20
2017,05,29,11,01,17.20
2017,05,29,11,02,17.10
2017,05,29,11,03,17.00
2017,05,29,11,04,16.90
2017,05,29,11,05,16.70
2017,05,29,11,06,16.60
2017,05,29,11,07,16.40
2017,05,29,11,08,16.30
2017,05,29,11,09,16.30
2017,05,29,11,10,16.10
2017,05,29,11,11,16.00
2017,05,29,11,12,15.80
2017,05,29,11,13,15.80
2017,05,29,11,14,15.70
2017,05,29,11,15,15.80
2017,05,29,11,16,15.80
2017,05,29,11,17,15.80
2017,05,29,11,18,15.80
2017,05,29,11,19,15.70
2017,05,29,11,20,15.70
2017,05,29,11,21,15.60
2017,05,29,11,22,15.60
2017,05,29,11,23,15.60
2017,05,29,11,24,15.70
2017,05,29,11,25,15.70
2017,05,29,11,26,15.70
2017,05,29,11,27,15.70
2017,05,29,11,28,15.70
2017,05,29,11,29,15.80
2017,05,29,11,30,15.80
2017,05,29,11,31,15.90
2017,05,29,11,32,15.90
2017,05,29,11,33,15.90
2017,05,29,11,34,15.90
2017,05,29,11,35,15.90
2017,05,29,11,36,15.90
2017,05,29,11,37,15.90
2017,05,29,11,38,16.00
2017,05,29,11,39,16.00
2017,05,29,11,40,16.10
2017,05,29,11,41,16.20
2017,05,29,11,42,16.30
2017,05,29,11,43,16.40
2017,05,29,11,44,16.40
2017,05,29,11,45,16.50
2017,05,29,11,46,16.60
2017,05,29,11,47,16.60
2017,05,29,11,48,16.70
2017,05,29,11,49,16.80
2017,05,29,11,50,17.00
2017,05,29,11,51,17.20
2017,05,29,11,52,17.30
2017,05,29,11,53,17.40
2017,05,29,11,54,17.40
2017,05,29,11,55,17.40
2017,05,29,11,56,17.40
2017,05,29,11,57,17.40
2017,05,29,11,58,17.40
2017,05,29,11,59,17.50
2017,05,29,12,00,17.60
2017,05,29,12,01,17.60
2017,05,29,12,02,17.60
2017,05,29,12,03,17.50
2017,05,29,12,04,17.50
2017,05,29,12,05,17.50
2017,05,29,12,06,17.50
2017,05,29,12,07,17.40
2017,05,29,12,08,17.30
2017,05,29,12,09,17.30
2017,05,29,12,10,17.30
2017,05,29,12,11,17.30
2017,05,29,12,12,17.30
2017,05,29,12,13,17.30
2017,05,29,12,14,17.40
2017,05,29,12,15,17.50
2017,05,29,12,16,17.50
2017,05,29,12,17,17.60
2017,05,29,12,18,17.70
2017,05,29,12,19,17.70
2017,05,29,12,20,17.70
2017,05,29,12,21,17.60
2017,05,29,12,22,17.50
2017,05,29,12,23,17.40
2017,05,29,12,24,17.40
2017,05,29,12,25,17.40
2017,05,29,12,26,17.40
2017,05,29,12,27,17.30
2017,05,29,12,28,17.40
2017,05,29,12,29,17.40
2017,05,29,12,30,17.40
2017,05,29,12,31,17.50
2017,05,29,12,32,17.50
2017,05,29,12,33,17.60
2017,05,29,12,34,17.70
2017,05,29,12,35,17.80
2017,05,29,12,36,17.90
2017,05,29,12,37,18.00
2017,05,29,12,38,18.00
2017,05,29,12,39,17.90
2017,05,29,12,40,17.80
2017,05,29,12,41,17.90
2017,05,29,12,42,17.90
2017,05,29,12,43,18.00
2017,05,29,12,44,18.10
2017,05,29,12,45,18.10
2017,05,29,12,46,18.10
2017,05,29,12,47,18.10
2017,05,29,12,48,18.10
2017,05,29,12,49,18.10
2017,05,29,12,50,18.10
2017,05,29,12,51,18.10
2017,05,29,12,52,18.20
2017,05,29,12,53,18.30
2017,05,29,12,54,18.30
2017,05,29,12,55,18.20
2017,05,29,12,56,18.20
2017,05,29,12,57,18.20
2017,05,29,12,58,18.20
2017,05,29,12,59,18.20
2017,05,29,13,00,18.20
2017,05,29,13,01,18.20
2017,05,29,13,02,18.20
2017,05,29,13,03,18.20
2017,05,29,13,04,18.10
2017,05,29,13,05,18.10
2017,05,29,13,06,18.10
2017,05,29,13,07,18.20
2017,05,29,13,08,18.30
2017,05,29,13,09,18.30
2017,05,29,13,10,18.40
2017,05,29,13,11,18.40
2017,05,29,13,12,18.40
2017,05,29,13,13,18.40
2017,05,29,13,14,18.40
2017,05,29,13,15,18.30
2017,05,29,13,16,18.30
2017,05,29,13,17,18.30
2017,05,29,13,18,18.30
2017,05,29,13,19,18.30
2017,05,29,13,20,18.30
2017,05,29,13,21,18.20
2017,05,29,13,22,18.10
2017,05,29,13,23,18.00
2017,05,29,13,24,18.00
2017,05,29,13,25,18.00
2017,05,29,13,26,18.10
2017,05,29,13,27,18.20
2017,05,29,13,28,18.20
2017,05,29,13,29,18.20
2017,05,29,13,30,18.10
2017,05,29,13,31,18.10
2017,05,29,13,32,18.10
2017,05,29,13,33,18.10
2017,05,29,13,34,18.10
2017,05,29,13,35,18.10
2017,05,29,13,36,18.20
2017,05,29,13,37,18.30
2017,05,29,13,38,18.30
2017,05,29,13,39,18.40
2017,05,29,13,40,18.30
2017,05,29,13,41,18.30
2017,05,29,13,42,18.30
2017,05,29,13,43,18.30
2017,05,29,13,44,18.20
2017,05,29,13,45,18.20
2017,05,29,13,46,18.20
2017,05,29,13,47,18.10
2017,05,29,13,48,18.10
2017,05,29,13,49,18.00
2017,05,29,13,50,17.90
2017,05,29,13,51,17.90
2017,05,29,13,52,17.90
2017,05,29,13,53,17.90
2017,05,29,13,54,18.00
2017,05,29,13,55,18.10
2017,05,29,13,56,18.20
2017,05,29,13,57,18.40
2017,05,29,13,58,18.60
2017,05,29,13,59,18.70
2017,05,29,14,00,18.70
2017,05,29,14,01,18.60
2017,05,29,14,02,18.60
2017,05,29,14,03,18.60
2017,05,29,14,04,18.50
2017,05,29,14,05,18.50
2017,05,29,14,06,18.50
2017,05,29,14,07,18.60
2017,05,29,14,08,18.60
2017,05,29,14,09,18.60
2017,05,29,14,10,18.60
2017,05,29,14,11,18.70
2017,05,29,14,12,18.70
2017,05,29,14,13,18.70
2017,05,29,14,14,18.80
2017,05,29,14,15,18.80
2017,05,29,14,16,18.80
2017,05,29,14,17,18.80
2017,05,29,14,18,18.80
2017,05,29,14,19,18.80
2017,05,29,14,20,18.80
2017,05,29,14,21,18.90
2017,05,29,14,22,19.00
2017,05,29,14,23,19.10
2017,05,29,14,24,19.00
2017,05,29,14,25,19.00
2017,05,29,14,26,18.90
2017,05,29,14,27,18.90
2017,05,29,14,28,18.90
2017,05,29,14,29,18.90
2017,05,29,14,30,19.00
2017,05,29,14,31,19.10
2017,05,29,14,32,19.10
2017,05,29,14,33,19.10
2017,05,29,14,34,19.20
2017,05,29,14,35,19.30
2017,05,29,14,36,19.30
2017,05,29,14,37,19.30
2017,05,29,14,38,19.20
2017,05,29,14,39,19.30
2017,05,29,14,40,19.40
2017,05,29,14,41,19.50
2017,05,29,14,42,19.60
2017,05,29,14,43,19.70
2017,05,29,14,44,19.70
2017,05,29,14,45,19.80
2017,05,29,14,46,19.90
2017,05,29,14,47,20.00
2017,05,29,14,48,20.00
2017,05,29,14,49,20.00
2017,05,29,14,50,19.90
2017,05,29,14,51,19.90
2017,05,29,14,52,20.00
2017,05,29,14,53,20.10
2017,05,29,14,54,20.20
2017,05,29,14,55,20.20
2017,05,29,14,56,20.20
2017,05,29,14,57,20.20
2017,05,29,14,58,20.20
2017,05,29,14,59,20.20
2017,05,29,15,00,20.20
2017,05,29,15,01,20.30
2017,05,29,15,02,20.40
2017,05,29,15,03,20.60
2017,05,29,15,04,20.70
2017,05,29,15,05,20.70
2017,05,29,15,06,20.70
2017,05,29,15,07,20.70
2017,05,29,15,08,20.70
2017,05,29,15,09,20.60
2017,05,29,15,10,20.60
2017,05,29,15,11,20.50
2017,05,29,15,12,20.40
2017,05,29,15,13,20.40
2017,05,29,15,14,20.50
2017,05,29,15,15,20.60
2017,05,29,15,16,20.70
2017,05,29,15,17,20.70
2017,05,29,15,18,20.70
2017,05,29,15,19,20.70
2017,05,29,15,20,20.70
2017,05,29,15,21,20.60
2017,05,29,15,22,20.60
2017,05,29,15,23,20.60
2017,05,29,15,24,20.70
2017,05,29,15,25,20.80
2017,05,29,15,26,20.70
2017,05,29,15,27,20.60
2017,05,29,15,28,20.60
2017,05,29,15,29,20.60
2017,05,29,15,30,20.50
2017,05,29,15,31,20.30
2017,05,29,15,32,20.30
2017,05,29,15,33,20.30
2017,05,29,15,34,20.30
2017,05,29,15,35,20.30
2017,05,29,15,36,20.30
2017,05,29,15,37,20.30
2017,05,29,15,38,20.40
2017,05,29,15,39,20.50
2017,05,29,15,40,20.60
2017,05,29,15,41,20.70
2017,05,29,15,42,20.80
2017,05,29,15,43,20.90
2017,05,29,15,44,20.80
2017,05,29,15,45,20.80
2017,05,29,15,46,20.80
2017,05,29,15,47,20.70
2017,05,29,15,48,20.60
2017,05,29,15,49,20.60
2017,05,29,15,50,20.60
2017,05,29,15,51,20.70
2017,05,29,15,52,20.80
2017,05,29,15,53,20.80
2017,05,29,15,54,20.80
2017,05,29,15,55,20.90
2017,05,29,15,56,20.90
2017,05,29,15,57,20.90
2017,05,29,15,58,20.80
2017,05,29,15,59,20.80
2017,05,29,16,00,20.80
2017,05,29,16,01,20.70
2017,05,29,16,02,20.60
2017,05,29,16,03,20.70
2017,05,29,16,04,20.60
2017,05,29,16,05,20.60
2017,05,29,16,06,20.60
2017,05,29,16,07,20.80
2017,05,29,16,08,20.90
2017,05,29,16,09,20.90
2017,05,29,16,10,20.90
2017,05,29,16,11,21.00
2017,05,29,16,12,20.90
2017,05,29,16,13,20.80
2017,05,29,16,14,20.70
2017,05,29,16,15,20.60
2017,05,29,16,16,20.60
2017,05,29,16,17,20.70
2017,05,29,16,18,20.80
2017,05,29,16,19,20.90
2017,05,29,16,20,21.00
2017,05,29,16,21,21.10
2017,05,29,16,22,21.10
2017,05,29,16,23,21.10
2017,05,29,16,24,21.00
2017,05,29,16,25,21.10
2017,05,29,16,26,21.10
2017,05,29,16,27,21.10
2017,05,29,16,28,21.10
2017,05,29,16,29,21.10
2017,05,29,16,30,21.10
2017,05,29,16,31,21.10
2017,05,29,16,32,21.00
2017,05,29,16,33,21.00
2017,05,29,16,34,21.00
2017,05,29,16,35,21.00
2017,05,29,16,36,21.00
2017,05,29,16,37,21.00
2017,05,29,16,38,21.10
2017,05,29,16,39,21.10
2017,05,29,16,40,21.20
2017,05,29,16,41,21.20
2017,05,29,16,42,21.10
2017,05,29,16,43,21.10
2017,05,29,16,44,21.10
2017,05,29,16,45,21.10
2017,05,29,16,46,21.20
2017,05,29,16,47,21.30
2017,05,29,16,48,21.30
2017,05,29,16,49,21.30
2017,05,29,16,50,21.20
2017,05,29,16,51,21.20
2017,05,29,16,52,21.10
2017,05,29,16,53,20.90
2017,05,29,16,54,20.80
2017,05,29,16,55,20.60
2017,05,29,16,56,20.60
2017,05,29,16,57,20.60
2017,05,29,16,58,20.60
2017,05,29,16,59,20.70
2017,05,29,17,00,20.80
2017,05,29,17,01,20.90
2017,05,29,17,02,20.90
2017,05,29,17,03,20.80
2017,05,29,17,04,20.70
2017,05,29,17,05,20.60
2017,05,29,17,06,20.50
2017,05,29,17,07,20.50
2017,05,29,17,08,20.40
2017,05,29,17,09,20.40
2017,05,29,17,10,20.40
2017,05,29,17,11,20.30
2017,05,29,17,12,20.20
2017,05,29,17,13,20.20
2017,05,29,17,14,20.20
2017,05,29,17,15,20.10
2017,05,29,17,16,20.10
2017,05,29,17,17,20.10
2017,05,29,17,18,20.10
2017,05,29,17,19,20.10